1537797600.02,22995,253.88,73368.8,-7.49,-9.79,-9.27,0,*54
1537797601.25,22996,253.88,73392.5,-7.49,-9.45,-8.97,0,*52
1537797602.48,22997,253.88,73412.8,-7.51,-9.27,-8.89,0,*51
1537797603.68,22998,253.88,73380.8,-7.53,-9.75,-9.19,0,*53
1537797604.88,22999,253.88,73386.3,-7.53,-9.75,-9.19,0,*52
1537797606.11,23000,253.88,73332.8,-7.51,-9.79,-9.27,0,*59
1537797607.31,23001,253.88,73302.5,-7.53,-9.71,-9.19,0,*5F
1537797608.53,23002,253.88,73310.0,-7.53,-9.49,-9.05,0,*5A
1537797609.76,23003,253.88,73312.5,-7.53,-9.37,-8.93,0,*5C
1537797611.01,23004,253.88,73312.3,-7.55,-9.45,-9.01,0,*52
1537797612.26,23005,253.88,73258.8,-7.55,-9.31,-8.81,0,*59
1537797613.48,23006,253.88,73242.8,-7.57,-9.23,-8.71,0,*54
1537797614.69,23007,253.88,73240.0,-7.57,-9.23,-8.71,0,*55
1537797615.95,23008,253.88,73220.5,-7.55,-9.37,-8.89,0,*5A
1537797617.2,23009,253.88,73206.8,-7.55,-9.45,-8.93,0,*55
1537797618.45,23010,253.88,73190.3,-7.57,-9.41,-8.97,0,*5F
1537797619.7,23011,253.88,73196.5,-7.57,-9.49,-8.93,0,*52
1537797620.94,23012,253.88,73190.0,-7.57,-9.49,-8.97,0,*55
1537797622.19,23013,253.88,73208.0,-7.55,-9.45,-9.01,0,*54
1537797623.44,23014,253.88,73214.3,-7.57,-9.23,-8.81,0,*58
1537797624.66,23015,253.88,73254.0,-7.57,-9.23,-8.71,0,*56
1537797625.87,23016,253.88,73272.5,-7.57,-9.23,-8.67,0,*52
1537797627.09,23017,253.88,73260.0,-7.59,-9.11,-8.55,0,*5D
1537797628.29,23018,253.88,73260.3,-7.59,-9.19,-8.59,0,*56
1537797629.51,23019,253.88,73282.0,-7.57,-8.97,-8.45,0,*53
1537797630.73,23020,253.88,73306.8,-7.57,-8.97,-8.45,0,*59
1537797631.98,23021,253.88,73302.3,-7.57,-8.81,-8.37,0,*5A
1537797633.2,23022,253.88,73318.0,-7.57,-8.59,-8.17,0,*5E
1537797634.42,23023,253.88,73320.3,-7.57,-8.59,-8.25,0,*5E
1537797635.7,23024,253.88,73312.8,-7.55,-8.51,-8.11,0,*54
1537797636.93,23025,253.88,73314.8,-7.55,-8.41,-8.21,0,*57
1537797638.16,23026,253.88,73322.5,-7.55,-8.55,-8.21,0,*51
1537797639.39,23027,253.88,73320.0,-7.55,-8.55,-8.21,0,*50
1537797640.67,23028,253.88,73334.5,-7.55,-8.51,-8.07,0,*5F
1537797641.93,23029,253.88,73328.0,-7.55,-8.41,-8.07,0,*5F
1537797643.16,23030,253.88,73318.3,-7.55,-8.63,-8.21,0,*53
1537797644.41,23031,253.88,73316.8,-7.55,-8.63,-8.11,0,*51
1537797645.66,23032,253.88,73310.3,-7.53,-8.51,-8.11,0,*55
1537797646.89,23033,253.88,73308.8,-7.53,-8.41,-7.99,0,*5A
1537797648.09,23034,253.88,73306.5,-7.53,-8.55,-8.21,0,*54
1537797649.29,23035,253.88,73300.0,-7.53,-8.67,-8.21,0,*54
1537797650.49,23036,253.88,73306.8,-7.53,-8.63,-8.21,0,*53
1537797651.69,23037,253.88,73316.0,-7.53,-8.55,-8.21,0,*57
1537797652.95,23038,253.88,73322.8,-7.51,-8.51,-8.17,0,*5B
1537797654.2,23039,253.88,73316.0,-7.51,-8.51,-8.17,0,*5A
1537797655.43,23040,253.88,73316.3,-7.51,-8.59,-8.21,0,*59
1537797656.67,23041,253.81,73316.3,-7.51,-8.63,-8.21,0,*51
1537797657.86,23042,253.81,73322.3,-7.53,-8.75,-8.33,0,*54
1537797659.09,23043,253.88,73326.3,-7.51,-8.71,-8.29,0,*58
1537797660.32,23044,253.88,73338.0,-7.51,-8.59,-8.21,0,*5D
1537797661.55,23045,253.81,73338.0,-7.51,-8.59,-8.21,0,*5C
1537797662.78,23046,253.88,73342.8,-7.51,-8.59,-8.17,0,*5A
1537797664.03,23047,253.88,73348.5,-7.51,-8.51,-8.17,0,*53
1537797665.29,23048,253.88,73358.5,-7.51,-8.51,-8.17,0,*5C
1537797666.55,23049,253.88,73356.3,-7.51,-8.45,-8.07,0,*59
1537797667.84,23050,253.88,73348.8,-7.51,-8.51,-8.07,0,*54
1537797669.07,23051,253.81,73352.8,-7.51,-8.59,-8.21,0,*59
1537797670.33,23052,253.88,73346.3,-7.51,-8.51,-8.21,0,*52
1537797671.55,23053,253.88,73346.3,-7.51,-8.59,-8.21,0,*5B
1537797672.76,23054,253.88,73346.5,-7.53,-8.63,-8.21,0,*57
1537797674.01,23055,253.88,73352.0,-7.51,-8.45,-8.03,0,*50
1537797675.26,23056,253.81,73358.0,-7.51,-8.37,-8.03,0,*56
1537797676.5,23057,253.81,73356.5,-7.49,-8.37,-8.07,0,*5A
1537797677.73,23058,253.88,73362.0,-7.49,-8.45,-8.07,0,*50
1537797678.99,23059,253.81,73366.5,-7.47,-8.41,-7.99,0,*53
1537797680.22,23060,253.88,73374.3,-7.49,-8.37,-7.91,0,*5E
1537797681.44,23061,253.88,73370.0,-7.47,-8.33,-7.87,0,*52
1537797682.67,23062,253.81,73372.5,-7.49,-8.37,-7.91,0,*5C
1537797683.88,23063,253.88,73368.8,-7.49,-8.37,-7.83,0,*5E
1537797685.13,23064,253.81,73370.3,-7.47,-8.25,-7.77,0,*5F
1537797686.33,23065,253.88,73368.3,-7.49,-8.33,-7.83,0,*5C
1537797687.59,23066,253.88,73374.8,-7.47,-8.29,-7.73,0,*55
1537797688.82,23067,253.81,73376.0,-7.49,-8.29,-7.77,0,*5E
1537797690.07,23068,253.81,73370.5,-7.47,-8.29,-7.77,0,*5F
1537797691.29,23069,253.81,73376.3,-7.45,-8.29,-7.77,0,*5C
1537797692.51,23070,253.81,73382.3,-7.45,-8.29,-7.91,0,*5C
1537797693.74,23071,253.88,73392.5,-7.45,-8.41,-7.91,0,*53
1537797694.96,23072,253.88,73384.8,-7.45,-8.41,-8.03,0,*54
1537797696.18,23073,253.88,73376.0,-7.45,-8.55,-8.03,0,*50
1537797697.4,23074,253.88,73366.0,-7.45,-8.59,-8.03,0,*5B
1537797698.63,23075,253.81,73352.3,-7.45,-8.41,-7.99,0,*5F
1537797699.83,23076,253.81,73342.5,-7.45,-8.41,-7.87,0,*53
1537797701.08,23077,253.81,73342.5,-7.43,-8.29,-7.73,0,*51
1537797702.31,23078,253.88,73340.8,-7.45,-8.25,-7.65,0,*53
1537797703.59,23079,253.81,73342.3,-7.43,-8.11,-7.61,0,*57
1537797704.87,23080,253.81,73344.3,-7.43,-8.07,-7.57,0,*53
1537797706.15,23081,253.88,73340.8,-7.43,-8.11,-7.61,0,*50
1537797707.43,23082,253.81,73344.5,-7.43,-7.99,-7.57,0,*59
1537797708.68,23083,253.81,73348.3,-7.39,-7.95,-7.53,0,*5D
1537797709.89,23084,253.81,73348.5,-7.37,-8.03,-7.53,0,*54
1537797711.13,23085,253.81,73350.3,-7.39,-8.03,-7.53,0,*5B
1537797712.35,23086,253.81,73346.0,-7.37,-7.91,-7.53,0,*52
1537797713.54,23087,253.81,73340.5,-7.37,-7.83,-7.53,0,*50
1537797714.76,23088,253.81,73342.3,-7.37,-7.95,-7.53,0,*58
1537797715.98,23089,253.81,73344.8,-7.37,-7.95,-7.53,0,*59
1537797717.23,23090,253.81,73338.5,-7.37,-8.03,-7.57,0,*55
1537797718.51,23091,253.81,73334.8,-7.35,-8.07,-7.57,0,*52
1537797719.78,23092,253.81,73338.0,-7.35,-8.03,-7.57,0,*55
1537797721.02,23093,253.81,73334.0,-7.35,-8.03,-7.53,0,*50
1537797722.27,23094,253.81,73332.3,-7.35,-7.83,-7.39,0,*5C
1537797723.55,23095,253.81,73336.8,-7.35,-7.77,-7.35,0,*5A
1537797724.8,23096,253.81,73342.8,-7.33,-7.91,-7.43,0,*56
1537797726.05,23097,253.81,73344.8,-7.35,-7.83,-7.39,0,*5F
1537797727.3,23098,253.81,73344.0,-7.33,-7.77,-7.39,0,*5D
1537797728.54,23099,253.81,73338.0,-7.33,-7.91,-7.39,0,*54
1537797729.82,23100,253.81,73334.5,-7.35,-8.07,-7.57,0,*5B
1537797731.04,23101,253.81,73332.3,-7.33,-8.03,-7.53,0,*5C
1537797732.26,23102,253.81,73328.8,-7.33,-7.99,-7.49,0,*58
1537797733.51,23103,253.81,73318.8,-7.31,-7.99,-7.49,0,*5B
1537797734.75,23104,253.81,73316.5,-7.29,-7.95,-7.43,0,*53
1537797736.0,23105,253.81,73318.5,-7.31,-7.99,-7.49,0,*5D
1537797737.27,23106,253.81,73312.0,-7.31,-7.91,-7.39,0,*51
1537797738.48,23107,253.81,73304.0,-7.29,-7.87,-7.35,0,*52
1537797739.7,23108,253.81,73306.3,-7.29,-7.87,-7.35,0,*5D
1537797740.92,23109,253.81,73282.3,-7.29,-7.95,-7.49,0,*54
1537797742.16,23110,253.81,73228.3,-7.31,-7.99,-7.49,0,*59
1537797743.36,23111,253.81,73224.5,-7.29,-8.25,-7.83,0,*5F
1537797744.58,23112,253.81,73258.8,-7.29,-8.37,-7.99,0,*54
1537797745.79,23113,253.81,73270.3,-7.29,-8.37,-7.95,0,*59
1537797747.01,23114,253.81,73284.5,-7.29,-8.29,-7.95,0,*51
1537797748.2,23115,253.81,73276.3,-7.29,-8.29,-7.83,0,*57
1537797749.4,23116,253.81,73266.0,-7.29,-8.17,-7.83,0,*59
1537797750.65,23117,253.81,73280.5,-7.31,-8.17,-7.73,0,*5E
1537797751.89,23118,253.81,73272.5,-7.29,-8.07,-7.57,0,*5F
1537797753.14,23119,253.81,73294.5,-7.29,-8.07,-7.61,0,*5B
1537797754.39,23120,253.81,73306.5,-7.29,-8.07,-7.61,0,*51
1537797755.64,23121,253.81,73304.0,-7.29,-8.07,-7.61,0,*50
1537797756.89,23122,253.81,73318.0,-7.29,-8.07,-7.61,0,*53
1537797758.17,23123,253.81,73320.3,-7.31,-8.11,-7.65,0,*58
1537797759.41,23124,253.81,73316.8,-7.29,-8.11,-7.69,0,*5A
1537797760.65,23125,253.81,73322.5,-7.29,-8.07,-7.69,0,*5C
1537797761.9,23126,253.81,73334.0,-7.31,-8.17,-7.65,0,*5B
1537797763.15,23127,253.81,73334.0,-7.29,-8.11,-7.69,0,*59
1537797764.39,23128,253.81,73334.8,-7.29,-8.11,-7.69,0,*56
1537797765.6,23129,253.81,73332.5,-7.29,-7.99,-7.49,0,*5A
1537797766.85,23130,253.81,73324.3,-7.29,-8.07,-7.61,0,*50
1537797768.1,23131,253.81,73332.8,-7.29,-8.07,-7.61,0,*51
1537797769.35,23132,253.81,73328.5,-7.29,-8.11,-7.65,0,*51
1537797770.59,23133,253.81,73326.3,-7.29,-8.11,-7.69,0,*5C
1537797771.86,23134,253.81,73328.8,-7.27,-8.03,-7.65,0,*5A
1537797773.11,23135,253.81,73330.5,-7.29,-7.95,-7.57,0,*54
1537797774.33,23136,253.81,73328.0,-7.29,-7.83,-7.43,0,*55
1537797775.6,23137,253.81,73328.8,-7.27,-7.69,-7.39,0,*53
1537797776.85,23138,253.75,73330.5,-7.25,-7.65,-7.27,0,*5D
1537797778.12,23139,253.81,73330.0,-7.27,-7.69,-7.27,0,*52
1537797779.37,23140,253.81,73330.0,-7.25,-7.69,-7.27,0,*5E
1537797780.59,23141,253.81,73326.3,-7.25,-7.69,-7.23,0,*5B
1537797781.84,23142,253.81,73320.3,-7.25,-7.69,-7.27,0,*5C
1537797783.09,23143,253.81,73326.0,-7.25,-7.65,-7.31,0,*56
1537797784.34,23144,253.81,73326.5,-7.25,-7.77,-7.39,0,*5A
1537797785.56,23145,253.81,73334.0,-7.25,-7.83,-7.31,0,*58
1537797786.81,23146,253.81,73334.8,-7.23,-7.77,-7.39,0,*5E
1537797788.05,23147,253.75,73340.5,-7.23,-7.77,-7.35,0,*53
1537797789.28,23148,253.75,73350.8,-7.23,-7.87,-7.39,0,*5F
1537797790.49,23149,253.75,73354.3,-7.23,-7.91,-7.53,0,*55
1537797791.71,23150,253.75,73354.3,-7.23,-7.91,-7.49,0,*56
1537797792.95,23151,253.75,73358.8,-7.21,-7.99,-7.49,0,*5D
1537797794.19,23152,253.75,73360.5,-7.21,-7.91,-7.49,0,*56
1537797795.44,23153,253.75,73368.0,-7.23,-7.99,-7.61,0,*57
1537797796.69,23154,253.75,73366.0,-7.23,-8.03,-7.61,0,*5C
1537797797.94,23155,253.75,73368.3,-7.23,-7.99,-7.65,0,*55
1537797799.18,23156,253.75,73368.8,-7.23,-8.03,-7.61,0,*5E
1537797800.43,23157,253.75,73366.0,-7.23,-8.03,-7.65,0,*5B
1537797801.67,23158,253.75,73356.5,-7.23,-8.03,-7.65,0,*54
1537797802.92,23159,253.75,73358.3,-7.23,-8.03,-7.73,0,*52
1537797804.16,23160,253.75,73356.0,-7.23,-8.03,-7.73,0,*58
1537797805.41,23161,253.75,73352.8,-7.23,-8.03,-7.65,0,*5E
1537797806.64,23162,253.75,73352.5,-7.25,-8.11,-7.83,0,*50
1537797807.86,23163,253.75,73346.3,-7.25,-8.21,-7.91,0,*51
1537797809.08,23164,253.75,73338.0,-7.23,-8.29,-7.99,0,*50
1537797810.29,23165,253.75,73336.5,-7.23,-8.33,-7.99,0,*5A
1537797811.51,23166,253.75,73322.0,-7.23,-8.41,-8.03,0,*50
1537797812.77,23167,253.75,73318.8,-7.27,-8.45,-8.07,0,*55
1537797814.03,23168,253.75,73306.0,-7.25,-8.51,-8.07,0,*5D
1537797815.26,23169,253.75,73304.0,-7.25,-8.71,-8.11,0,*59
1537797816.46,23170,253.75,73304.0,-7.25,-8.63,-8.21,0,*51
1537797817.68,23171,253.75,73310.5,-7.27,-8.63,-8.21,0,*52
1537797818.88,23172,253.75,73310.5,-7.25,-8.63,-8.21,0,*53
1537797820.09,23173,253.75,73320.8,-7.25,-8.71,-8.25,0,*55
1537797821.31,23174,253.75,73324.3,-7.27,-8.71,-8.25,0,*50
1537797822.56,23175,253.75,73332.8,-7.27,-8.63,-8.11,0,*55
1537797823.79,23176,253.75,73332.5,-7.29,-8.37,-8.07,0,*5E
1537797825.01,23177,253.75,73340.5,-7.29,-8.37,-7.99,0,*57
1537797826.22,23178,253.75,73344.3,-7.29,-8.25,-7.99,0,*5B
1537797827.44,23179,253.75,73352.5,-7.29,-8.17,-7.95,0,*57
1537797828.64,23180,253.69,73360.3,-7.29,-8.17,-7.83,0,*56
1537797829.88,23181,253.75,73362.0,-7.29,-8.11,-7.73,0,*5E
1537797831.13,23182,253.75,73366.0,-7.29,-8.07,-7.69,0,*51
1537797832.4,23183,253.75,73372.8,-7.27,-7.91,-7.57,0,*53
1537797833.62,23184,253.75,73378.0,-7.27,-7.83,-7.53,0,*53
1537797834.86,23185,253.75,73380.8,-7.27,-7.83,-7.57,0,*56
1537797836.13,23186,253.75,73378.8,-7.27,-7.91,-7.65,0,*57
1537797837.4,23187,253.69,73386.5,-7.27,-8.03,-7.77,0,*51
1537797838.68,23188,253.75,73388.8,-7.27,-7.91,-7.65,0,*59
1537797839.92,23189,253.69,73386.8,-7.27,-7.83,-7.57,0,*5A
1537797841.17,23190,253.69,73382.3,-7.25,-7.95,-7.69,0,*5A
1537797842.41,23191,253.69,73390.3,-7.25,-7.95,-7.69,0,*5B
1537797843.66,23192,253.69,73386.8,-7.25,-7.91,-7.69,0,*5C
1537797844.92,23193,253.69,73368.0,-7.27,-7.91,-7.69,0,*5F
1537797846.17,23194,253.69,73356.0,-7.25,-7.95,-7.65,0,*52
1537797847.42,23195,253.69,73346.0,-7.25,-7.95,-7.69,0,*5F
1537797848.69,23196,253.69,73342.5,-7.27,-7.95,-7.65,0,*52
1537797849.96,23197,253.69,73354.3,-7.27,-8.03,-7.69,0,*5F
1537797851.19,23198,253.69,73344.0,-7.25,-8.11,-7.83,0,*55
1537797852.43,23199,253.69,73366.3,-7.27,-8.33,-8.07,0,*55
1537797853.64,23200,253.69,73380.8,-7.25,-8.71,-8.45,0,*54
1537797854.86,23201,253.69,73374.8,-7.27,-8.89,-8.63,0,*54
1537797856.08,23202,253.69,73364.3,-7.27,-9.05,-8.75,0,*55
1537797857.31,23203,253.69,73378.0,-7.27,-9.01,-8.75,0,*50
1537797858.56,23204,253.69,73384.0,-7.27,-8.75,-8.51,0,*53
1537797859.75,23205,253.69,73382.3,-7.29,-8.93,-8.71,0,*56
1537797861.0,23206,253.69,73368.3,-7.31,-9.15,-8.93,0,*5F
1537797862.28,23207,253.69,73404.0,-7.31,-9.11,-8.81,0,*59
1537797863.51,23208,253.69,73388.8,-7.33,-9.11,-8.93,0,*57
1537797864.76,23209,253.69,73384.3,-7.33,-9.15,-8.81,0,*51
1537797865.98,23210,253.69,73360.5,-7.35,-9.01,-8.63,0,*56
1537797867.18,23211,253.69,73336.8,-7.33,-8.85,-8.55,0,*59
1537797868.43,23212,253.69,73292.3,-7.35,-8.97,-8.51,0,*5B
1537797869.69,23213,253.69,73278.3,-7.35,-8.85,-8.51,0,*59
1537797870.92,23214,253.69,73274.8,-7.35,-8.71,-8.37,0,*55
1537797872.12,23215,253.69,73268.5,-7.37,-8.59,-8.25,0,*5F
1537797873.32,23216,253.69,73268.8,-7.37,-8.63,-8.37,0,*56
1537797874.55,23217,253.69,73266.5,-7.35,-8.63,-8.25,0,*56
1537797875.77,23218,253.69,73268.5,-7.35,-8.59,-8.25,0,*50
1537797877.0,23219,253.69,73272.8,-7.35,-8.45,-8.17,0,*5D
1537797878.22,23220,253.69,73278.0,-7.37,-8.33,-8.07,0,*55
1537797879.47,23221,253.63,73276.8,-7.35,-8.33,-8.07,0,*56
1537797880.7,23222,253.69,73272.8,-7.35,-8.37,-8.17,0,*50
1537797881.9,23223,253.69,73276.5,-7.37,-8.45,-8.21,0,*53
1537797883.13,23224,253.69,73282.5,-7.35,-8.45,-8.21,0,*56
1537797884.35,23225,253.69,73284.5,-7.35,-8.45,-8.17,0,*52
1537797885.58,23226,253.69,73358.5,-7.35,-8.37,-8.21,0,*51
1537797886.81,23227,253.69,73308.3,-7.35,-8.75,-8.37,0,*51
1537797888.01,23228,253.69,73268.0,-7.33,-8.71,-8.41,0,*5D
1537797889.27,23229,253.69,73222.0,-7.35,-9.11,-8.85,0,*55
1537797890.5,23230,253.63,73274.3,-7.39,-9.01,-8.63,0,*58
1537797891.7,23231,253.69,73296.0,-7.37,-8.89,-8.59,0,*5F
1537797892.92,23232,253.63,73270.8,-7.39,-8.63,-8.33,0,*5A
1537797894.12,23233,253.69,73274.0,-7.37,-8.59,-8.25,0,*5B
1537797895.34,23234,253.63,73300.8,-7.39,-8.59,-8.25,0,*52
1537797896.56,23235,253.63,73304.0,-7.37,-8.51,-8.25,0,*55
1537797897.79,23236,253.63,73296.3,-7.35,-8.59,-8.25,0,*5C
1537797899.0,23237,253.63,73314.0,-7.39,-8.59,-8.33,0,*56
1537797900.2,23238,253.63,73306.0,-7.37,-8.45,-8.25,0,*5D
1537797901.4,23239,253.63,73310.3,-7.37,-8.37,-8.17,0,*58
1537797902.66,23240,253.63,73312.5,-7.39,-8.37,-8.07,0,*59
1537797903.91,23241,253.63,73314.8,-7.39,-8.33,-8.07,0,*5C
1537797905.14,23242,253.63,73326.8,-7.37,-8.25,-8.07,0,*56
1537797906.36,23243,253.63,73330.8,-7.37,-8.25,-8.03,0,*53
1537797907.61,23244,253.63,73328.8,-7.39,-8.25,-7.95,0,*5A
1537797908.83,23245,253.63,73322.5,-7.37,-8.17,-7.91,0,*50
1537797910.06,23246,253.63,73324.8,-7.37,-8.17,-7.91,0,*53
1537797911.28,23247,253.63,73334.0,-7.37,-8.17,-7.91,0,*52
1537797912.5,23248,253.63,73336.5,-7.37,-8.17,-7.95,0,*59
1537797913.73,23249,253.63,73342.8,-7.37,-8.17,-7.91,0,*5C
1537797914.98,23250,253.63,73340.3,-7.35,-8.07,-7.83,0,*54
1537797916.21,23251,253.63,73346.0,-7.35,-8.17,-7.83,0,*54
1537797917.44,23252,253.63,73350.5,-7.35,-8.17,-7.83,0,*57
1537797918.65,23253,253.63,73350.8,-7.33,-8.17,-7.83,0,*50
1537797919.9,23254,253.63,73362.0,-7.35,-8.17,-7.77,0,*5A
1537797921.15,23255,253.63,73364.0,-7.35,-8.21,-7.95,0,*52
1537797922.4,23256,253.63,73342.0,-7.35,-8.33,-8.07,0,*56
1537797923.62,23257,253.63,73354.3,-7.33,-8.21,-7.99,0,*5A
1537797924.86,23258,253.63,73352.5,-7.35,-8.33,-8.03,0,*5C
1537797926.12,23259,253.63,73392.0,-7.35,-8.45,-8.07,0,*58
1537797927.35,23260,253.63,73378.0,-7.35,-8.45,-8.21,0,*56
1537797928.54,23261,253.63,73350.5,-7.33,-8.67,-8.41,0,*57
1537797929.8,23262,253.63,73392.0,-7.35,-8.85,-8.51,0,*5F
1537797931.06,23263,253.63,73376.0,-7.35,-8.85,-8.51,0,*5E
1537797932.28,23264,253.63,73400.0,-7.35,-8.71,-8.33,0,*56
1537797933.51,23265,253.63,73408.5,-7.35,-8.63,-8.25,0,*53
1537797934.73,23266,253.63,73396.8,-7.35,-8.75,-8.33,0,*50
1537797935.95,23267,253.63,73398.5,-7.35,-8.89,-8.59,0,*5E
1537797937.18,23268,253.63,73402.8,-7.37,-8.89,-8.51,0,*5B
1537797938.38,23269,253.63,73234.0,-7.37,-8.89,-8.59,0,*52
1537797939.58,23270,253.63,73296.5,-7.37,-9.01,-8.71,0,*51
1537797940.81,23271,253.63,73326.3,-7.37,-9.11,-8.75,0,*55
1537797942.04,23272,253.63,73312.8,-7.39,-9.01,-8.75,0,*59
1537797943.3,23273,253.63,73334.3,-7.39,-9.11,-8.85,0,*56
1537797944.52,23274,253.63,73354.5,-7.39,-9.01,-8.75,0,*5F
1537797945.78,23275,253.63,73316.0,-7.39,-8.89,-8.51,0,*59
1537797947.01,23276,253.63,73326.5,-7.43,-8.89,-8.63,0,*56
1537797948.24,23277,253.63,73324.0,-7.43,-8.67,-8.37,0,*56
1537797949.46,23278,253.63,73294.0,-7.43,-8.89,-8.55,0,*5D
1537797950.69,23279,253.63,73308.0,-7.43,-8.89,-8.63,0,*59
1537797951.92,23280,253.63,73302.0,-7.43,-8.89,-8.63,0,*5F
1537797953.14,23281,253.63,73314.3,-7.43,-9.01,-8.75,0,*58
1537797954.34,23282,253.63,73322.5,-7.45,-9.05,-8.71,0,*5D
1537797955.54,23283,253.63,73328.5,-7.45,-8.97,-8.71,0,*56
1537797956.74,23284,253.63,73314.8,-7.45,-9.05,-8.71,0,*5B
1537797957.96,23285,253.63,73332.8,-7.45,-9.05,-8.81,0,*55
1537797959.19,23286,253.63,73348.8,-7.45,-9.11,-8.85,0,*57
1537797960.42,23287,253.63,73334.5,-7.45,-9.11,-8.85,0,*56
1537797961.66,23288,253.63,73334.3,-7.45,-9.11,-8.85,0,*59
1537797962.88,23289,253.63,73332.5,-7.45,-9.11,-8.71,0,*53
1537797964.1,23290,253.63,73316.5,-7.47,-8.97,-8.55,0,*50
1537797965.34,23291,253.63,73308.5,-7.47,-8.71,-8.45,0,*58
1537797966.57,23292,253.63,73308.8,-7.47,-8.71,-8.45,0,*5B
1537797967.8,23293,253.63,73310.8,-7.47,-8.67,-8.41,0,*59
1537797969.02,23294,253.56,73316.8,-7.47,-8.59,-8.29,0,*5D
1537797970.25,23295,253.63,73324.0,-7.47,-8.45,-8.25,0,*5D
1537797971.48,23296,253.63,73358.8,-7.47,-8.41,-8.17,0,*5B
1537797972.7,23297,253.63,73376.5,-7.47,-8.45,-8.25,0,*5F
1537797973.93,23298,253.63,73392.0,-7.47,-8.59,-8.29,0,*51
1537797975.15,23299,253.56,73374.5,-7.47,-8.67,-8.41,0,*53
1537797976.4,23300,253.63,73396.3,-7.47,-8.81,-8.55,0,*5F
1537797977.63,23301,253.56,73376.0,-7.47,-8.85,-8.59,0,*56
1537797978.86,23302,253.56,73370.3,-7.47,-9.05,-8.85,0,*5D
1537797980.09,23303,253.63,73366.0,-7.49,-9.31,-9.11,0,*59
1537797981.32,23304,253.63,73354.8,-7.49,-9.31,-9.11,0,*5E
1537797982.56,23305,253.56,73334.3,-7.49,-9.15,-8.89,0,*59
1537797983.76,23306,253.56,73326.3,-7.49,-8.97,-8.71,0,*56
1537797984.96,23307,253.56,73330.0,-7.49,-9.01,-8.71,0,*59
1537797986.19,23308,253.56,73324.5,-7.49,-8.75,-8.51,0,*56
1537797987.4,23309,253.56,73324.3,-7.49,-8.63,-8.45,0,*55
1537797988.6,23310,253.63,73318.3,-7.49,-8.63,-8.37,0,*58
1537797989.81,23311,253.56,73310.3,-7.49,-8.63,-8.37,0,*59
1537797991.02,23312,253.63,73306.8,-7.49,-8.63,-8.45,0,*5F
1537797992.22,23313,253.63,73304.8,-7.49,-8.59,-8.29,0,*5D
1537797993.42,23314,253.56,73304.8,-7.49,-8.63,-8.33,0,*58
1537797994.63,23315,253.63,73298.0,-7.49,-8.63,-8.37,0,*5D
1537797995.83,23316,253.56,73292.5,-7.49,-8.63,-8.37,0,*5E
1537797997.06,23317,253.56,73288.3,-7.49,-8.51,-8.33,0,*5A
1537797998.26,23318,253.56,73284.5,-7.49,-8.59,-8.29,0,*56
1537797999.46,23319,253.56,73282.5,-7.49,-8.45,-8.29,0,*5A
1537798000.66,23320,253.56,73276.3,-7.49,-8.59,-8.29,0,*5D
1537798001.88,23321,253.56,73272.5,-7.47,-8.59,-8.29,0,*52
1537798003.08,23322,253.56,73270.0,-7.49,-8.59,-8.29,0,*5F
1537798004.3,23323,253.63,73256.0,-7.47,-8.59,-8.33,0,*5B
1537798005.51,23324,253.56,73252.5,-7.49,-8.59,-8.37,0,*56
1537798006.7,23325,253.56,73262.8,-7.49,-8.59,-8.33,0,*53
1537798007.91,23326,253.56,73262.5,-7.49,-8.71,-8.45,0,*5B
1537798009.12,23327,253.56,73266.3,-7.49,-8.63,-8.45,0,*59
1537798010.33,23328,253.56,73270.8,-7.49,-8.63,-8.37,0,*53
1537798011.56,23329,253.56,73282.0,-7.49,-8.51,-8.37,0,*53
1537798012.79,23330,253.56,73286.3,-7.49,-8.51,-8.29,0,*54
1537798013.99,23331,253.56,73292.3,-7.49,-8.45,-8.29,0,*50
1537798015.21,23332,253.56,73298.0,-7.47,-8.33,-8.17,0,*51
1537798016.46,23333,253.56,73300.5,-7.47,-8.33,-8.11,0,*56
1537798017.7,23334,253.56,73304.0,-7.49,-8.37,-8.07,0,*5C
1537798018.9,23335,253.56,73308.0,-7.49,-8.37,-8.21,0,*59
1537798020.11,23336,253.56,73312.3,-7.49,-8.37,-8.21,0,*5A
1537798021.35,23337,253.56,73318.0,-7.47,-8.29,-8.03,0,*5A
1537798022.6,23338,253.56,73316.3,-7.47,-8.29,-8.03,0,*55
1537798023.85,23339,253.56,73324.5,-7.47,-8.29,-8.03,0,*54
1537798025.08,23340,253.56,73330.0,-7.49,-8.33,-8.07,0,*5B
1537798026.32,23341,253.56,73338.5,-7.47,-8.29,-8.03,0,*5B
1537798027.57,23342,253.56,73334.0,-7.47,-8.25,-8.03,0,*54
1537798028.83,23343,253.56,73330.3,-7.47,-8.25,-7.99,0,*59
1537798030.07,23344,253.56,73336.8,-7.47,-8.29,-8.03,0,*5E
1537798031.32,23345,253.56,73338.3,-7.47,-8.29,-8.03,0,*5F
1537798032.57,23346,253.56,73324.3,-7.47,-8.29,-8.03,0,*5C
1537798033.82,23347,253.56,73330.3,-7.47,-8.25,-8.11,0,*52
1537798035.08,23348,253.56,73340.8,-7.47,-8.29,-8.11,0,*51
1537798036.29,23349,253.56,73352.0,-7.45,-8.29,-8.03,0,*51
1537798037.51,23350,253.56,73356.3,-7.45,-8.29,-8.11,0,*5A
1537798038.76,23351,253.56,73344.0,-7.43,-8.21,-7.99,0,*5A
1537798039.99,23352,253.56,73342.0,-7.45,-8.25,-8.11,0,*54
1537798041.21,23353,253.56,73342.3,-7.45,-8.25,-7.99,0,*5A
1537798042.41,23354,253.56,73344.3,-7.45,-8.29,-8.17,0,*58
1537798043.6,23355,253.56,73342.5,-7.45,-8.45,-8.17,0,*53
1537798044.8,23356,253.56,73334.5,-7.45,-8.45,-8.29,0,*5D
1537798046.0,23357,253.56,73352.0,-7.45,-8.45,-8.29,0,*5C
1537798047.2,23358,253.56,73356.3,-7.45,-8.45,-8.29,0,*53
1537798048.39,23359,253.56,73362.0,-7.45,-8.33,-8.25,0,*5F
1537798049.58,23360,253.56,73356.5,-7.45,-8.33,-8.17,0,*54
1537798050.78,23361,253.56,73358.5,-7.45,-8.41,-8.25,0,*51
1537798051.97,23362,253.56,73364.5,-7.45,-8.33,-8.17,0,*56
1537798053.16,23363,253.56,73364.5,-7.45,-8.41,-8.17,0,*52
1537798054.42,23364,253.56,73368.0,-7.43,-8.29,-8.07,0,*5C
1537798055.64,23365,253.56,73374.5,-7.45,-8.33,-8.11,0,*57
1537798056.86,23366,253.56,73380.8,-7.45,-8.33,-8.11,0,*54
1537798058.08,23367,253.56,73384.3,-7.45,-8.33,-8.11,0,*55
1537798059.27,23368,253.56,73382.8,-7.45,-8.33,-8.17,0,*5C
1537798060.46,23369,253.56,73384.3,-7.45,-8.45,-8.29,0,*51
1537798061.66,23370,253.56,73386.5,-7.45,-8.45,-8.29,0,*59
1537798062.89,23371,253.56,73382.5,-7.43,-8.41,-8.25,0,*56
1537798064.08,23372,253.56,73388.5,-7.45,-8.45,-8.29,0,*5B
1537798065.28,23373,253.56,73388.5,-7.45,-8.55,-8.29,0,*5B
1537798066.48,23374,253.56,73384.5,-7.45,-8.67,-8.41,0,*53
1537798067.68,23375,253.56,73372.0,-7.45,-8.45,-8.29,0,*5C
1537798068.9,23376,253.56,73362.5,-7.47,-8.41,-8.25,0,*55
1537798070.13,23377,253.56,73362.5,-7.47,-8.41,-8.29,0,*58
1537798071.35,23378,253.56,73354.8,-7.47,-8.33,-8.25,0,*5E
1537798072.58,23379,253.56,73350.5,-7.47,-8.41,-8.29,0,*56
1537798073.77,23380,253.56,73346.8,-7.45,-8.45,-8.29,0,*56
1537798074.97,23381,253.56,73354.8,-7.45,-8.55,-8.29,0,*56
1537798076.16,23382,253.56,73386.5,-7.45,-8.67,-8.33,0,*5F
1537798077.37,23383,253.56,73362.8,-7.49,-8.63,-8.37,0,*52
1537798078.6,23384,253.56,73348.3,-7.47,-8.59,-8.33,0,*56
1537798079.83,23385,253.5,73348.8,-7.49,-8.51,-8.37,0,*55
1537798081.06,23386,253.56,73342.8,-7.47,-8.45,-8.29,0,*52
1537798082.28,23387,253.56,73342.0,-7.47,-8.41,-8.29,0,*57
1537798083.51,23388,253.56,73338.0,-7.47,-8.41,-8.29,0,*58
1537798084.74,23389,253.56,73328.0,-7.47,-8.55,-8.25,0,*50
1537798085.96,23390,253.56,73330.5,-7.47,-8.33,-8.17,0,*59
1537798087.18,23391,253.5,73330.3,-7.47,-8.33,-8.17,0,*58
1537798088.41,23392,253.5,73320.0,-7.47,-8.45,-8.25,0,*5B
1537798089.63,23393,253.56,73296.3,-7.47,-8.41,-8.17,0,*5F
1537798090.86,23394,253.56,73314.5,-7.49,-8.51,-8.33,0,*51
1537798092.09,23395,253.5,73326.8,-7.47,-8.45,-8.29,0,*50
1537798093.31,23396,253.56,73328.5,-7.47,-8.67,-8.41,0,*5D
1537798094.55,23397,253.5,73322.8,-7.47,-8.81,-8.55,0,*51
1537798095.79,23398,253.56,73324.5,-7.47,-8.71,-8.45,0,*50
1537798097.02,23399,253.5,73320.5,-7.47,-8.71,-8.45,0,*51
1537798098.23,23400,253.5,73314.0,-7.49,-8.63,-8.37,0,*5E
1537798099.46,23401,253.5,73346.5,-7.47,-8.45,-8.29,0,*5A